Weather Roundup
Issued by NWS Springfield, MO

Home | Current Version | Previous Version | Text Only | Print | Product List | Glossary On
Versions: 1 2 3 4 5 6 7 8 9 10 11 12 13 14 15 16 17 18 19 20 21 22 23 24 25 26 27 28 29 30 31 32 33 34 35 36 37 38 39 40 41 42 43 44 45 46 47 48 49 50
000
NZUS99 KSGF 210357
HRRSGF

HOURLY WEATHER
NATIONAL WEATHER SERVICE SPRINGFIELD MO
1000 PM CST SAT JAN 20 2018

......SGF CWA......

CITY           SKY/WX    TMP DP  RH WIND       PRES   REMARKS
SPRINGFIELD    CLEAR     49  46  90 S13       29.89S
WEST PLAINS    CLOUDY    52  48  86 S9        29.98F
ROLLA          PTCLDY    49  46  90 S13       29.93S

......SURROUNDING SGF CWA......

CITY           SKY/WX    TMP DP  RH WIND       PRES   REMARKS
CHANUTE        CLEAR     51  47  86 S12       29.83S
PARSONS        CLEAR     53  49  86 S9        29.83S
COFFEYVILLE    CLEAR     52  48  86 S12       29.83S
EMPORIA        CLOUDY    40  39  97 SE8       29.79S WCI  34
HARRISON AR    PTCLDY    55  50  83 S16G25    29.93S

......KANSAS AND MISSOURI......

CITY           SKY/WX    TMP DP  RH WIND       PRES   REMARKS
KANSAS CTY INT MOCLDY    44  42  93 SE12      29.84F FOG
SEDALIA        CLEAR     43  42  97 SE6       29.88R
ST JOSEPH      CLEAR     33  33 100 E3        29.86R FOG
ST LOUIS       CLEAR     42  38  85 SE6       29.98R
WICHITA        CLOUDY    45  41  86 SE3       29.75S
TOPEKA         FOG       40  40 100 SE3       29.82S VSB 1/2
OLATHE         CLEAR     42  41  96 E5        29.84S

......TENNESSEE......

CITY           SKY/WX    TMP DP  RH WIND       PRES   REMARKS
MEMPHIS        NOT AVBL
NASHVILLE      MOCLDY    56  37  49 S10       30.16F

......ARKANSAS.......

CITY           SKY/WX    TMP DP  RH WIND       PRES   REMARKS
FAYETTEVILLE   PTCLDY    54  52  93 S10G20    29.92S
FT SMITH       MOCLDY    49  48  97 NE5       29.94S
LITTLE ROCK    MOCLDY    58  56  93 S13       30.04F

......OKLAHOMA.......

CITY           SKY/WX    TMP DP  RH WIND       PRES   REMARKS
TULSA          PTCLDY    57  52  83 S13       29.81F
PONCA CITY     CLEAR     58  45  62 S20       29.76S
MCALESTER      MOCLDY    60  54  80 S14G32    29.89S
OKLAHOMA CITY  CLEAR     55  49  80 S17       29.79S

......IOWA............

CITY           SKY/WX    TMP DP  RH WIND       PRES   REMARKS
DES MOINES     NOT AVBL
QUAD CITIES    CLOUDY    42  37  82 SE6       29.94F

......ILLINOIS........

CITY           SKY/WX    TMP DP  RH WIND       PRES   REMARKS
QUINCY         NOT AVBL
CHICAGO        CLOUDY    40  35  83 S6        29.98R




USA.gov is the U.S. government's official web portal to all federal, state and local government web resources and services.